Other Public Products
Issued by NWS Grand Forks, ND

Home | Current Version | Previous Version | Text Only | Print | Product List | Glossary Off
Versions: 1 2 3 4 5 6 7 8 9 10 11 12 13 14 15 16 17 18 19 20 21 22 23 24 25 26 27 28 29 30 31 32 33 34 35 36 37 38 39 40 41 42 43 44 45 46 47 48 49 50

000
FPUS83 KFGF 031110
OPUFGF
PRAIRIE TO PINES WEATHER ROUNDUP
NATIONAL WEATHER SERVICE EASTERN NORTH DAKOTA/GRAND FORKS ND
600 AM CDT MON AUG 03 2015

 **SATELLITE DATA USED TO AUGMENT SKY COVER AT AUTOMATED STATIONS**
 *****  WEATHER ACROSS EASTERN NORTH DAKOTA  *****

CITY           SKY/WX    TMP DP  RH WIND       PRES   REMARKS
GRAND FORKS    CLEAR     49  46  90 W6        29.90R
GRAND FORKS AF CLEAR     51  48  89 W8        29.91R
GRAND CITY NWS NOT AVBL
BUXTON         NOT AVBL
DEVILS LAKE    CLEAR     54  45  71 NW8       29.94S
FARGO          CLEAR     51  46  83 W3        29.92R
WAHPETON ARPT  SUNNY     46  45  93 W5        29.94R
$$

 *****  WEATHER ACROSS CENTRAL AND WESTERN NORTH DAKOTA  *****

CITY           SKY/WX    TMP DP  RH WIND       PRES   REMARKS
JAMESTOWN      CLEAR     53  49  86 NW5       29.96R
BISMARCK       CLEAR     52  50  93 W5        30.01R
MINOT          CLEAR     53  48  83 SW3       30.00R
MINOT AFB      CLEAR     50  49  99 W5        29.99S
GARRISON         N/A     52  49  89 N7        30.01R
WILLISTON      CLEAR     50  47  89 N3        30.03S
DICKINSON      CLEAR     54  48  80 N7        30.03S
HETTINGER      CLEAR     48  44  86 NW3       30.06R
$$

 *****  OTHER OBSERVATIONS NORTHEAST NORTH DAKOTA  *****

CITY           SKY/WX    TMP DP  RH WIND       PRES   REMARKS
WALHALLA       FAIR      52  50  93 MISG      29.92R
LANGDON        FAIR      45  45 100 W6        29.94S
CAVALIER       FAIR      50  46  87 W5        29.91R
GRAFTON        FAIR      54  50  87 W8        29.91S
CANDO          NOT AVBL
FORT TOTTEN      N/A     52  51  96 CALM      29.95S
ROLLA          FAIR      50  46  87 NW9       29.98R
RUGBY          NOT AVBL
 ***** THE ABOVE OBSERVATIONS ARE NON NWS ARE NOT QUALITY
        CONTROLLED AND MAY MIS-REPORT RAIN FOR SNOW...
$$

 *****  OTHER OBSERVATIONS SOUTHEAST NORTH DAKOTA *****

CITY           SKY/WX    TMP DP  RH WIND       PRES   REMARKS
COOPERSTOWN    NOT AVBL
VALLEY CITY    FAIR      54  54 100 N5        29.95S
OAKES            N/A     52  52 100 W5        29.96S
GWINNER        FAIR      57  50  77 W7        29.95S
SHEYENNE NWR     N/A     50  48  93 W2        29.95S
BUFFALO        NOT AVBL
WYNDMERE         N/A     52  48  87 W2          N/A
 ***** THE ABOVE OBSERVATIONS ARE NON NWS ARE NOT QUALITY
       CONTROLLED AND MAY MIS-REPORT RAIN FOR SNOW...
$$

  *****  WEATHER ACROSS NORTHERN MINNESOTA  *****

CITY           SKY/WX    TMP DP  RH WIND       PRES   REMARKS
FLAG ISLAND    CLOUDY    57  54  88 W16       29.81S
WARROAD        PTCLDY    54  48  82 W6        29.86R
ROSEAU         CLEAR     54  48  82 W7        29.86R
HALLOCK        CLEAR     48  46  93 W5        29.89R
THF RVR FALLS  CLEAR     50  46  87 W6        29.90R
HALSTAD        NOT AVBL
FOSSTON        CLEAR     43  39  87 CALM      29.91R
BAUDETTE       CLOUDY    57  50  77 W8        29.83R
WASKISH        CLOUDY    57  52  82 W13G18    29.85R
CROOKSTON      CLEAR     48  46  93 CALM      29.92R
$$
  *****  WEATHER ACROSS CENTRAL AND WEST MINNESOTA  *****

CITY           SKY/WX    TMP DP  RH WIND       PRES   REMARKS
BEMIDJI        CLEAR     51  46  82 W6        29.88R
PARK RAPIDS    CLEAR     50  47  89 NW6       29.90R
WADENA         CLEAR     48  48 100 W5        29.90R
DETROIT LAKES  CLEAR     54  50  87 NW3       29.93R
MOORHEAD       CLEAR     52  48  87 CALM      29.93R
FERGUS FALLS   CLEAR     52  50  93 CALM      29.93R
ELBOW LAKE     FAIR      53  50  89 NW8       29.92S
MORRIS MN      CLEAR     50  48  93 NW7       29.92S
STAPLES        CLEAR     48  48 100 W5        29.90R
WHEATON        CLEAR     54  50  87 CALM      29.95S
$$
  *****  WEATHER ELSEWHERE ACROSS MINNESOTA  *****

CITY           SKY/WX    TMP DP  RH WIND       PRES   REMARKS
DULUTH         MOCLDY    57  46  66 NW12      29.80R
INTRNTL FALLS  CLOUDY    56  51  84 NW7       29.79R
ELY            CLOUDY    55  48  76 W6        29.76R
CLOQUET        CLOUDY    55  45  67 W8        29.82R
BRAINERD       CLEAR     55  51  86 W9        29.88R
HIBBING        CLOUDY    57  47  69 W9        29.81R
ALEXANDRIA     CLEAR     55  51  86 N5        29.93R
SAINT CLOUD    CLEAR     53  50  89 NW3       29.89R
MINNEAPOLIS    CLEAR     60  53  77 NW6       29.88R
$$

  *****  WEATHER ACROSS SOUTH DAKOTA  *****

CITY           SKY/WX    TMP DP  RH WIND       PRES   REMARKS
SIOUX FALLS    PTCLDY    56  54  93 NW3       29.97R
BROOKINGS        N/A     54  50  87 CALM      29.98S VSB 1/2
WATERTOWN      CLEAR     53  51  93 CALM      29.96R
HURON          CLEAR     57  56  96 W3        29.96R
SISSETON         N/A     53  48  83 W3        29.93R
ABERDEEN       CLEAR     56  51  84 N6        29.96R
MITCHELL       CLEAR     56  55  97 CALM      29.97S
PIERRE         CLEAR     56  53  90 N7        29.98R
MOBRIDGE       CLEAR     56  56 100 CALM      29.97S
RAPID CITY     CLEAR     57  51  80 CALM      30.02F
$$

  *****  SOME WEATHER IN NEARBY STATES *****

CITY           SKY/WX    TMP DP  RH WIND       PRES   REMARKS
GLASGOW MT     CLEAR     59  48  67 E12       30.01F
GREAT FALLS MT PTCLDY    60  45  57 CALM      29.94S
CHEYENNE WY    CLOUDY    58  49  72 SW5       30.13S
SCOTTSBLUFF NE MOCLDY    61  56  83 CALM      29.99F
OMAHA NE       PTCLDY    67  64  90 N5        29.95R
DES MOINES IA  PTCLDY    69  57  65 N5        29.92R
DAVENPORT IA   PTCLDY    63  61  93 NW5       29.86R
CHICAGO IL     PTCLDY    68  65  90 W6        29.80R
EAU CLAIRE WI  CLEAR     57  49  74 W7        29.83S
LA CROSSE WI   CLEAR     59  53  80 SE3       29.86R
$$

  *****  SOME NATIONAL WEATHER *****

CITY           SKY/WX    TMP DP  RH WIND       PRES   REMARKS
LA GUARDIA NY  MOSUNNY   77  60  55 S8        29.84S
RALEIGH NC     MOCLDY    72  69  90 CALM      29.93R
ATLANTA GA     PTCLDY    73  67  81 E5        29.92R
NEW ORLEANS LA MOCLDY    79  73  82 NW3       29.88R
OKLAHOMA CITY  CLOUDY    71  67  87 CALM      29.94R
ALBUQUERQUE NM PTCLDY    65  59  81 N5        30.14S
SALT LAKE CITY LGT RAIN  65  60  84 S6        30.05R
LOS ANGELES CA CLEAR     68  62  81 CALM      29.87S
BOISE ID       MOCLDY    77  49  37 N6        29.85S
SEATTLE WA     CLOUDY    65  54  67 CALM      29.90S
$$

*** WEATHER ACROSS MANITOBA...SASKATCHEWAN AND ONTARIO ***
                ***ONTARIO***

CITY           SKY/WX    TMP DP  RH WIND       PRES   REMARKS
GERALDTON      CLOUDY    54  52  94 W6        29.61R
THUNDER BAY    CLOUDY    57  52  82 W6        29.69R
SIOUX LOOKOUT  CLOUDY    54  50  87 NW8       29.73R
TORONTO        CLOUDY    64  61  88 W16G23    29.68S
BIG TROUT LK   CLOUDY    45  45 100 N7        29.65R
PICKLE LAKE    DRIZZLE   50  48  93 NW8G18    29.64  FOG
DRYDEN         CLOUDY    54  52  94 NW7       29.76R FOG
KENORA         MOCLDY    55  50  82 NW7       29.81R
$$
                *** MANITOBA***

CITY           SKY/WX    TMP DP  RH WIND       PRES   REMARKS
BRANDON        PTCLDY    45  43  93 NW7       29.96R
DAUPHIN        CLEAR     48  46  93 W8        29.94S
ISLAND LAKE    CLOUDY    50  50 100 N10G17    29.76R
PILOT MOUND      N/A     48  46  93 NW7         N/A
THE PAS        PTCLDY    52  48  87 CALM      29.91R
THOMPSON       LGT RAIN  52  48  87 NW5       29.84R
WINNIPEG       PTCLDY    50  48  93 W9        29.89R
LYNN LAKE      CLOUDY    50  48  93 NW5       29.92R
CHURCHILL      LGT RAIN  45  43  93 N10       29.85R
GILLAM         CLOUDY    45  45 100 N14       29.80R
$$
                ***SASKATCHEWAN***

CITY           SKY/WX    TMP DP  RH WIND       PRES   REMARKS
ESTEVAN        CLEAR     46  45  93 W7        30.02F
KINDERSLEY     MOCLDY    55  52  88 SE9       29.99F
LLOYDMINSTER   CLEAR     55  50  82 S10       29.97F
PRINCE ALBERT  CLEAR     45  45 100 CALM      29.98S
REGINA         CLEAR     50  48  93 VRB2      30.02S


USA.gov is the U.S. government's official web portal to all federal, state and local government web resources and services.